QPF
0.01 0.00 0.00 0.02 0.04 0.03 0.03 0.02 0.01 0.02 0.02 0.02 0.02 0.02 0.02 0.03 0.03 0.03 0.02 0.01 0.01 0.02 0.02 0.03 0.03 0.03 0.02 0.01 0.01 0.01 0.01 0.01 0.02 0.02 0.03 0.04 0.04 0.04 0.03 0.02 0.02 0.01 0.02
0.00 0.00 0.00 0.01 0.03 0.03 0.03 0.02 0.02 0.02 0.02 0.02 0.03 0.03 0.04 0.03 0.03 0.03 0.02 0.02 0.02 0.02 0.03 0.04 0.04 0.02 0.01 0.01 0.01 0.01 0.01 0.01 0.01 0.01 0.02 0.03 0.04 0.05 0.04 0.03 0.03 0.03 0.03
0.00 0.00 0.00 0.01 0.03 0.02 0.02 0.02 0.02 0.02 0.02 0.02 0.03 0.03 0.03 0.05 0.05 0.05 0.03 0.02 0.02 0.03 0.05 0.05 0.03 0.02 0.01 0.01 0.01 0.01 0.01 0.01 0.01 0.01 0.01 0.02 0.03 0.04 0.04 0.03 0.03 0.03 0.02
0.00 0.00 0.01 0.02 0.02 0.02 0.03 0.03 0.03 0.03 0.03 0.03 0.03 0.02 0.02 0.03 0.07 0.06 0.03 0.02 0.03 0.05 0.07 0.06 0.02 0.02 0.01 0.01 0.01 0.01 0.01 0.00 0.00 0.00 0.01 0.02 0.03 0.03 0.03 0.02 0.03 0.03 0.03
0.00 0.01 0.02 0.04 0.01 0.02 0.03 0.03 0.03 0.03 0.03 0.04 0.04 0.03 0.02 0.02 0.04 0.06 0.03 0.03 0.04 0.05 0.07 0.06 0.03 0.02 0.01 0.01 0.01 0.01 0.01 0.00 0.00 0.00 0.01 0.02 0.03 0.03 0.03 0.02 0.02 0.02 0.03
0.01 0.01 0.02 0.04 0.02 0.02 0.03 0.04 0.03 0.03 0.03 0.03 0.03 0.03 0.02 0.01 0.02 0.03 0.03 0.04 0.05 0.04 0.05 0.05 0.04 0.02 0.01 0.01 0.01 0.01 0.01 0.01 0.00 0.00 0.01 0.02 0.02 0.04 0.04 0.03 0.03 0.02 0.02
0.00 0.00 0.01 0.03 0.03 0.02 0.02 0.03 0.03 0.03 0.03 0.03 0.03 0.02 0.01 0.01 0.01 0.02 0.03 0.04 0.05 0.03 0.04 0.04 0.03 0.03 0.01 0.01 0.01 0.01 0.01 0.00 0.00 0.01 0.02 0.02 0.03 0.04 0.05 0.04 0.03 0.03 0.03
0.00 0.00 0.00 0.01 0.02 0.01 0.03 0.04 0.04 0.04 0.03 0.03 0.02 0.02 0.02 0.02 0.02 0.03 0.03 0.03 0.04 0.04 0.04 0.03 0.03 0.02 0.02 0.01 0.01 0.01 0.01 0.01 0.00 0.01 0.02 0.03 0.04 0.04 0.04 0.04 0.03 0.03 0.04
0.00 0.00 0.01 0.01 0.02 0.02 0.03 0.06 0.05 0.05 0.04 0.04 0.04 0.04 0.04 0.05 0.04 0.03 0.04 0.03 0.04 0.04 0.03 0.02 0.02 0.02 0.01 0.01 0.01 0.01 0.00 0.00 0.01 0.01 0.01 0.03 0.03 0.03 0.03 0.04 0.04 0.04 0.05
0.00 0.00 0.01 0.01 0.01 0.02 0.03 0.05 0.04 0.04 0.05 0.06 0.05 0.04 0.03 0.03 0.03 0.02 0.03 0.03 0.03 0.03 0.03 0.02 0.01 0.01 0.01 0.01 0.01 0.01 0.00 0.00 0.01 0.01 0.01 0.01 0.02 0.02 0.03 0.03 0.03 0.04 0.04
0.00 0.00 0.00 0.01 0.01 0.01 0.01 0.04 0.04 0.02 0.03 0.04 0.04 0.03 0.02 0.03 0.02 0.02 0.01 0.01 0.02 0.02 0.02 0.01 0.01 0.01 0.01 0.00 0.00 0.00 0.00 0.00 0.00 0.01 0.01 0.01 0.01 0.02 0.02 0.02 0.03 0.03 0.03
0.00 0.00 0.00 0.01 0.01 0.01 0.01 0.02 0.04 0.03 0.02 0.03 0.03 0.02 0.02 0.03 0.03 0.02 0.01 0.01 0.01 0.01 0.01 0.01 0.00 0.00 0.00 0.01 0.01 0.00 0.01 0.01 0.01 0.02 0.01 0.01 0.02 0.03 0.02 0.02 0.02 0.03 0.03
0.00 0.00 0.00 0.01 0.01 0.02 0.02 0.02 0.03 0.03 0.02 0.02 0.02 0.02 0.02 0.02 0.03 0.02 0.02 0.01 0.01 0.01 0.01 0.01 0.00 0.01 0.01 0.02 0.01 0.01 0.01 0.01 0.02 0.02 0.01 0.01 0.02 0.03 0.03 0.03 0.03 0.03 0.04
0.01 0.01 0.01 0.00 0.01 0.02 0.02 0.02 0.03 0.03 0.03 0.02 0.02 0.02 0.02 0.02 0.03 0.03 0.02 0.02 0.02 0.01 0.02 0.02 0.02 0.01 0.01 0.01 0.01 0.01 0.02 0.02 0.01 0.02 0.01 0.01 0.02 0.03 0.03 0.03 0.03 0.03 0.04
0.01 0.01 0.01 0.01 0.01 0.01 0.02 0.02 0.02 0.03 0.03 0.03 0.03 0.02 0.02 0.02 0.02 0.02 0.02 0.01 0.01 0.02 0.02 0.02 0.02 0.01 0.01 0.02 0.02 0.02 0.03 0.03 0.01 0.01 0.01 0.01 0.02 0.04 0.05 0.04 0.04 0.06 0.06
0.01 0.01 0.01 0.01 0.01 0.01 0.01 0.02 0.02 0.03 0.04 0.04 0.05 0.03 0.02 0.02 0.02 0.02 0.02 0.02 0.02 0.02 0.03 0.03 0.02 0.02 0.02 0.02 0.02 0.03 0.04 0.02 0.01 0.01 0.01 0.01 0.02 0.05 0.07 0.07 0.07 0.09 0.10
0.01 0.01 0.01 0.01 0.01 0.01 0.01 0.01 0.02 0.02 0.04 0.05 0.05 0.04 0.03 0.02 0.02 0.02 0.02 0.02 0.01 0.01 0.02 0.02 0.02 0.02 0.01 0.02 0.02 0.03 0.03 0.02 0.02 0.01 0.01 0.01 0.01 0.05 0.10 0.13 0.13 0.13 0.12
0.02 0.02 0.02 0.01 0.01 0.01 0.01 0.01 0.01 0.02 0.02 0.03 0.04 0.04 0.04 0.03 0.02 0.03 0.03 0.02 0.02 0.02 0.02 0.01 0.01 0.01 0.01 0.01 0.03 0.04 0.03 0.03 0.02 0.02 0.02 0.01 0.02 0.04 0.08 0.15 0.17 0.12 0.10
0.01 0.02 0.02 0.01 0.01 0.01 0.01 0.01 0.01 0.01 0.01 0.02 0.02 0.02 0.02 0.02 0.02 0.02 0.03 0.03 0.03 0.03 0.02 0.02 0.02 0.02 0.02 0.02 0.04 0.05 0.04 0.04 0.02 0.01 0.02 0.02 0.03 0.05 0.06 0.09 0.11 0.09 0.07
0.01 0.01 0.02 0.02 0.02 0.02 0.02 0.01 0.01 0.01 0.01 0.02 0.02 0.02 0.02 0.01 0.02 0.02 0.02 0.02 0.03 0.03 0.02 0.01 0.01 0.01 0.02 0.03 0.04 0.04 0.05 0.06 0.05 0.02 0.02 0.02 0.04 0.06 0.06 0.07 0.05 0.05 0.04
0.01 0.01 0.01 0.02 0.02 0.02 0.02 0.02 0.01 0.00 0.01 0.02 0.02 0.01 0.01 0.02 0.01 0.01 0.01 0.02 0.02 0.02 0.02 0.02 0.01 0.01 0.02 0.02 0.04 0.05 0.05 0.06 0.07 0.04 0.03 0.03 0.03 0.04 0.05 0.06 0.04 0.03 0.02
0.01 0.01 0.01 0.01 0.01 0.01 0.02 0.02 0.01 0.01 0.01 0.01 0.02 0.01 0.01 0.01 0.01 0.01 0.01 0.01 0.01 0.02 0.02 0.02 0.02 0.02 0.02 0.03 0.04 0.04 0.04 0.05 0.06 0.05 0.04 0.03 0.03 0.03 0.03 0.03 0.03 0.02 0.01
0.01 0.01 0.01 0.01 0.00 0.00 0.01 0.01 0.02 0.02 0.02 0.02 0.02 0.02 0.01 0.01 0.01 0.01 0.01 0.01 0.02 0.02 0.02 0.02 0.03 0.02 0.02 0.03 0.05 0.04 0.03 0.04 0.04 0.05 0.05 0.03 0.03 0.03 0.02 0.02 0.02 0.02 0.01
0.00 0.00 0.01 0.01 0.00 0.00 0.01 0.01 0.01 0.02 0.02 0.02 0.01 0.01 0.01 0.01 0.01 0.01 0.01 0.02 0.02 0.02 0.02 0.02 0.04 0.02 0.02 0.03 0.04 0.03 0.04 0.04 0.03 0.03 0.04 0.04 0.03 0.03 0.02 0.02 0.02 0.02 0.01
0.00 0.00 0.00 0.01 0.01 0.00 0.01 0.01 0.01 0.02 0.02 0.02 0.02 0.02 0.02 0.01 0.01 0.01 0.02 0.02 0.02 0.03 0.02 0.03 0.03 0.02 0.02 0.03 0.04 0.03 0.02 0.03 0.03 0.02 0.03 0.03 0.03 0.02 0.02 0.02 0.02 0.02 0.01
0.00 0.00 0.00 0.00 0.00 0.00 0.00 0.01 0.02 0.02 0.02 0.02 0.02 0.02 0.02 0.02 0.01 0.01 0.02 0.02 0.02 0.03 0.04 0.03 0.02 0.01 0.01 0.02 0.03 0.03 0.03 0.02 0.02 0.03 0.03 0.03 0.02 0.01 0.01 0.01 0.02 0.02 0.02
MSLP
1023.23 1023.49 1023.72 1023.94 1024.15 1024.36 1024.54 1024.65 1024.68 1024.63 1024.49 1024.31 1024.10 1023.92 1023.77 1023.67 1023.62 1023.61 1023.62 1023.63 1023.63 1023.62 1023.58 1023.53 1023.46 1023.38 1023.28 1023.16 1023.01 1022.84 1022.65 1022.45 1022.25 1022.06 1021.90 1021.75 1021.61 1021.48 1021.35 1021.19 1021.02 1020.82 1020.61
1023.08 1023.39 1023.69 1023.98 1024.26 1024.52 1024.73 1024.86 1024.90 1024.84 1024.72 1024.55 1024.38 1024.24 1024.14 1024.10 1024.10 1024.13 1024.17 1024.20 1024.22 1024.21 1024.19 1024.15 1024.10 1024.03 1023.93 1023.79 1023.62 1023.42 1023.19 1022.96 1022.74 1022.55 1022.40 1022.28 1022.18 1022.08 1021.97 1021.83 1021.65 1021.44 1021.21
1023.05 1023.39 1023.72 1024.05 1024.38 1024.68 1024.92 1025.08 1025.14 1025.10 1025.01 1024.88 1024.75 1024.66 1024.62 1024.62 1024.65 1024.69 1024.73 1024.75 1024.76 1024.74 1024.72 1024.69 1024.65 1024.59 1024.49 1024.36 1024.17 1023.95 1023.70 1023.45 1023.23 1023.05 1022.92 1022.83 1022.76 1022.69 1022.60 1022.46 1022.29 1022.07 1021.83
1023.09 1023.44 1023.79 1024.15 1024.52 1024.85 1025.13 1025.31 1025.40 1025.41 1025.35 1025.27 1025.19 1025.15 1025.14 1025.17 1025.21 1025.24 1025.26 1025.25 1025.22 1025.19 1025.16 1025.13 1025.10 1025.05 1024.97 1024.85 1024.67 1024.44 1024.19 1023.95 1023.73 1023.57 1023.46 1023.39 1023.34 1023.29 1023.21 1023.08 1022.91 1022.70 1022.46
1023.16 1023.50 1023.86 1024.25 1024.65 1025.02 1025.33 1025.55 1025.68 1025.73 1025.72 1025.68 1025.65 1025.64 1025.66 1025.70 1025.73 1025.74 1025.72 1025.67 1025.61 1025.56 1025.51 1025.49 1025.47 1025.45 1025.40 1025.29 1025.13 1024.93 1024.69 1024.46 1024.26 1024.11 1024.02 1023.96 1023.93 1023.88 1023.80 1023.67 1023.50 1023.30 1023.08
1023.21 1023.54 1023.91 1024.32 1024.74 1025.15 1025.50 1025.77 1025.94 1026.03 1026.06 1026.06 1026.07 1026.09 1026.13 1026.16 1026.18 1026.17 1026.12 1026.04 1025.96 1025.88 1025.84 1025.82 1025.83 1025.84 1025.81 1025.74 1025.61 1025.42 1025.21 1025.00 1024.82 1024.68 1024.59 1024.54 1024.51 1024.45 1024.36 1024.23 1024.06 1023.87 1023.68
1023.21 1023.53 1023.91 1024.34 1024.80 1025.24 1025.63 1025.93 1026.14 1026.27 1026.34 1026.38 1026.41 1026.46 1026.51 1026.55 1026.56 1026.53 1026.47 1026.38 1026.28 1026.21 1026.17 1026.18 1026.21 1026.24 1026.25 1026.20 1026.10 1025.94 1025.76 1025.56 1025.40 1025.27 1025.19 1025.13 1025.08 1025.01 1024.90 1024.76 1024.59 1024.41 1024.26
1023.16 1023.47 1023.86 1024.31 1024.80 1025.28 1025.70 1026.04 1026.28 1026.44 1026.53 1026.60 1026.66 1026.73 1026.79 1026.84 1026.86 1026.84 1026.78 1026.70 1026.62 1026.56 1026.54 1026.57 1026.62 1026.68 1026.70 1026.69 1026.61 1026.47 1026.31 1026.14 1025.98 1025.86 1025.78 1025.71 1025.64 1025.55 1025.43 1025.27 1025.10 1024.93 1024.80
1023.07 1023.39 1023.78 1024.25 1024.76 1025.27 1025.71 1026.08 1026.34 1026.52 1026.64 1026.73 1026.81 1026.90 1026.98 1027.05 1027.10 1027.11 1027.07 1027.02 1026.97 1026.93 1026.94 1026.98 1027.04 1027.11 1027.15 1027.15 1027.08 1026.97 1026.82 1026.67 1026.53 1026.42 1026.34 1026.26 1026.18 1026.07 1025.93 1025.76 1025.58 1025.42 1025.30
1022.98 1023.29 1023.69 1024.17 1024.70 1025.22 1025.69 1026.06 1026.34 1026.54 1026.67 1026.78 1026.88 1026.99 1027.10 1027.20 1027.28 1027.32 1027.33 1027.31 1027.29 1027.28 1027.30 1027.35 1027.42 1027.49 1027.53 1027.53 1027.48 1027.38 1027.25 1027.12 1027.01 1026.91 1026.84 1026.76 1026.68 1026.56 1026.40 1026.22 1026.04 1025.87 1025.76
1022.87 1023.18 1023.59 1024.08 1024.62 1025.14 1025.61 1025.99 1026.28 1026.49 1026.63 1026.76 1026.87 1027.01 1027.14 1027.28 1027.39 1027.48 1027.52 1027.54 1027.55 1027.56 1027.58 1027.63 1027.69 1027.75 1027.78 1027.78 1027.73 1027.65 1027.55 1027.45 1027.37 1027.30 1027.24 1027.18 1027.10 1026.99 1026.83 1026.65 1026.46 1026.29 1026.17
1022.73 1023.06 1023.47 1023.96 1024.50 1025.02 1025.48 1025.86 1026.16 1026.37 1026.53 1026.66 1026.80 1026.95 1027.12 1027.28 1027.43 1027.54 1027.62 1027.66 1027.69 1027.70 1027.73 1027.77 1027.81 1027.85 1027.87 1027.87 1027.84 1027.78 1027.71 1027.65 1027.60 1027.57 1027.54 1027.51 1027.45 1027.35 1027.21 1027.03 1026.84 1026.66 1026.53
1022.54 1022.88 1023.30 1023.79 1024.32 1024.82 1025.28 1025.66 1025.95 1026.17 1026.34 1026.50 1026.65 1026.82 1027.01 1027.19 1027.36 1027.50 1027.59 1027.65 1027.68 1027.70 1027.72 1027.74 1027.77 1027.79 1027.81 1027.81 1027.79 1027.77 1027.74 1027.72 1027.71 1027.72 1027.74 1027.74 1027.71 1027.64 1027.52 1027.35 1027.17 1026.99 1026.84
1022.24 1022.62 1023.05 1023.54 1024.05 1024.55 1024.99 1025.36 1025.66 1025.89 1026.07 1026.24 1026.42 1026.60 1026.80 1027.00 1027.19 1027.34 1027.45 1027.51 1027.55 1027.56 1027.57 1027.58 1027.60 1027.62 1027.64 1027.65 1027.66 1027.67 1027.69 1027.71 1027.75 1027.80 1027.85 1027.89 1027.89 1027.85 1027.75 1027.62 1027.46 1027.28 1027.12
1021.84 1022.24 1022.69 1023.18 1023.68 1024.17 1024.60 1024.97 1025.27 1025.51 1025.72 1025.90 1026.09 1026.30 1026.51 1026.72 1026.91 1027.08 1027.20 1027.28 1027.32 1027.34 1027.34 1027.35 1027.37 1027.40 1027.44 1027.48 1027.52 1027.57 1027.63 1027.69 1027.76 1027.84 1027.92 1027.98 1028.01 1028.00 1027.94 1027.84 1027.70 1027.54 1027.39
1021.32 1021.76 1022.22 1022.72 1023.21 1023.68 1024.11 1024.49 1024.80 1025.06 1025.28 1025.49 1025.70 1025.91 1026.14 1026.36 1026.57 1026.75 1026.89 1026.98 1027.05 1027.08 1027.11 1027.14 1027.17 1027.22 1027.29 1027.36 1027.44 1027.53 1027.62 1027.71 1027.80 1027.90 1027.99 1028.06 1028.10 1028.12 1028.09 1028.03 1027.93 1027.81 1027.67
1020.71 1021.18 1021.67 1022.16 1022.66 1023.13 1023.56 1023.94 1024.27 1024.55 1024.80 1025.03 1025.25 1025.49 1025.73 1025.97 1026.19 1026.40 1026.57 1026.70 1026.80 1026.87 1026.93 1026.99 1027.06 1027.14 1027.24 1027.35 1027.47 1027.58 1027.70 1027.81 1027.91 1028.00 1028.09 1028.16 1028.21 1028.24 1028.25 1028.23 1028.18 1028.10 1028.00
1020.06 1020.56 1021.06 1021.57 1022.06 1022.54 1022.98 1023.39 1023.74 1024.04 1024.31 1024.56 1024.81 1025.06 1025.31 1025.57 1025.82 1026.06 1026.27 1026.45 1026.60 1026.73 1026.83 1026.94 1027.05 1027.17 1027.30 1027.45 1027.59 1027.73 1027.86 1027.98 1028.08 1028.17 1028.24 1028.30 1028.36 1028.41 1028.44 1028.46 1028.46 1028.44 1028.38
1019.39 1019.91 1020.43 1020.95 1021.46 1021.96 1022.43 1022.85 1023.23 1023.57 1023.86 1024.13 1024.39 1024.65 1024.92 1025.21 1025.49 1025.77 1026.02 1026.26 1026.46 1026.64 1026.80 1026.95 1027.10 1027.26 1027.43 1027.60 1027.77 1027.94 1028.08 1028.20 1028.30 1028.38 1028.44 1028.50 1028.56 1028.63 1028.70 1028.76 1028.82 1028.85 1028.85
1018.71 1019.26 1019.80 1020.34 1020.88 1021.40 1021.90 1022.36 1022.78 1023.14 1023.46 1023.75 1024.02 1024.30 1024.58 1024.88 1025.19 1025.50 1025.81 1026.09 1026.35 1026.58 1026.79 1026.98 1027.17 1027.36 1027.55 1027.75 1027.94 1028.12 1028.28 1028.42 1028.52 1028.61 1028.68 1028.75 1028.82 1028.91 1029.02 1029.14 1029.25 1029.34 1029.40
1018.02 1018.59 1019.16 1019.73 1020.31 1020.87 1021.41 1021.92 1022.37 1022.77 1023.11 1023.41 1023.70 1023.98 1024.27 1024.58 1024.91 1025.26 1025.60 1025.93 1026.23 1026.50 1026.74 1026.96 1027.18 1027.38 1027.60 1027.81 1028.02 1028.23 1028.41 1028.57 1028.71 1028.82 1028.91 1029.01 1029.12 1029.26 1029.41 1029.58 1029.75 1029.90 1030.01
1017.26 1017.87 1018.49 1019.10 1019.72 1020.34 1020.93 1021.48 1021.98 1022.40 1022.77 1023.09 1023.38 1023.67 1023.97 1024.29 1024.63 1025.00 1025.36 1025.71 1026.04 1026.34 1026.60 1026.84 1027.07 1027.29 1027.51 1027.74 1027.98 1028.22 1028.44 1028.64 1028.82 1028.98 1029.13 1029.28 1029.45 1029.64 1029.85 1030.08 1030.31 1030.51 1030.66
1016.40 1017.07 1017.74 1018.41 1019.09 1019.76 1020.41 1021.01 1021.55 1022.01 1022.41 1022.74 1023.05 1023.34 1023.65 1023.97 1024.32 1024.70 1025.07 1025.44 1025.78 1026.09 1026.36 1026.60 1026.83 1027.06 1027.30 1027.55 1027.81 1028.08 1028.35 1028.60 1028.84 1029.07 1029.29 1029.52 1029.76 1030.02 1030.31 1030.60 1030.89 1031.14 1031.33
1015.42 1016.16 1016.90 1017.64 1018.38 1019.11 1019.81 1020.46 1021.03 1021.54 1021.96 1022.32 1022.65 1022.95 1023.27 1023.61 1023.97 1024.35 1024.73 1025.10 1025.44 1025.75 1026.02 1026.27 1026.50 1026.74 1026.99 1027.26 1027.55 1027.86 1028.17 1028.49 1028.79 1029.10 1029.40 1029.71 1030.03 1030.38 1030.75 1031.11 1031.46 1031.75 1031.97
1014.35 1015.17 1015.98 1016.79 1017.58 1018.36 1019.11 1019.79 1020.41 1020.95 1021.41 1021.80 1022.16 1022.49 1022.83 1023.19 1023.56 1023.95 1024.34 1024.72 1025.06 1025.38 1025.65 1025.90 1026.14 1026.39 1026.66 1026.95 1027.27 1027.62 1027.97 1028.34 1028.70 1029.07 1029.45 1029.84 1030.25 1030.68 1031.12 1031.55 1031.96 1032.30 1032.55
1013.24 1014.14 1015.02 1015.88 1016.73 1017.54 1018.32 1019.03 1019.68 1020.25 1020.75 1021.18 1021.58 1021.96 1022.34 1022.73 1023.13 1023.54 1023.94 1024.33 1024.68 1025.00 1025.29 1025.55 1025.82 1026.08 1026.37 1026.69 1027.04 1027.41 1027.80 1028.20 1028.60 1029.02 1029.45 1029.90 1030.38 1030.88 1031.39 1031.89 1032.36 1032.74 1033.03
Thickness
5687 5685 5682 5681 5680 5678 5676 5675 5674 5673 5672 5671 5670 5670 5670 5670 5669 5669 5669 5669 5669 5670 5670 5670 5669 5668 5667 5666 5666 5665 5665 5664 5663 5662 5661 5661 5660 5660 5659 5659 5659 5658 5658
5686 5682 5679 5678 5676 5675 5672 5671 5670 5669 5668 5668 5667 5667 5666 5666 5666 5666 5666 5665 5666 5666 5666 5665 5664 5664 5663 5662 5661 5660 5660 5659 5658 5657 5656 5655 5655 5654 5654 5653 5653 5653 5652
5682 5679 5676 5674 5673 5671 5669 5667 5666 5665 5665 5664 5664 5663 5663 5663 5662 5662 5662 5662 5661 5662 5661 5660 5660 5659 5658 5657 5656 5656 5655 5654 5653 5652 5651 5650 5650 5649 5649 5648 5648 5647 5647
5679 5676 5673 5671 5669 5668 5666 5664 5663 5662 5661 5660 5660 5659 5659 5658 5658 5658 5658 5658 5657 5657 5657 5656 5655 5654 5653 5653 5652 5651 5650 5649 5648 5647 5646 5645 5645 5645 5644 5643 5643 5642 5641
5675 5672 5669 5667 5666 5664 5662 5661 5660 5658 5658 5657 5656 5655 5655 5654 5654 5654 5653 5653 5653 5653 5652 5651 5650 5649 5648 5648 5647 5646 5645 5644 5644 5643 5641 5640 5640 5639 5639 5638 5637 5637 5636
5670 5667 5665 5663 5662 5660 5658 5657 5656 5655 5654 5653 5652 5652 5651 5650 5650 5649 5649 5648 5648 5648 5647 5646 5645 5644 5644 5643 5642 5641 5640 5639 5639 5638 5637 5636 5635 5635 5634 5633 5632 5631 5631
5666 5664 5660 5658 5657 5656 5654 5653 5652 5651 5650 5649 5648 5647 5647 5646 5646 5645 5644 5644 5643 5643 5642 5641 5640 5639 5638 5637 5636 5636 5635 5634 5634 5633 5632 5631 5630 5630 5629 5628 5627 5626 5626
5662 5659 5656 5654 5652 5651 5650 5649 5648 5647 5646 5645 5644 5643 5643 5642 5641 5640 5640 5639 5638 5637 5636 5635 5634 5633 5632 5631 5631 5630 5630 5629 5628 5627 5627 5626 5625 5625 5624 5622 5621 5620 5620
5656 5654 5651 5649 5648 5647 5646 5645 5644 5643 5642 5641 5641 5640 5638 5637 5636 5636 5635 5634 5633 5632 5631 5629 5628 5627 5626 5625 5624 5624 5624 5623 5623 5622 5621 5620 5620 5619 5618 5617 5616 5615 5614
5651 5649 5647 5645 5644 5643 5641 5640 5640 5639 5638 5637 5636 5635 5634 5633 5632 5631 5630 5629 5627 5626 5625 5623 5622 5620 5619 5618 5617 5617 5618 5617 5617 5616 5615 5615 5614 5613 5612 5611 5610 5609 5609
5645 5644 5643 5641 5640 5639 5637 5636 5636 5635 5634 5633 5631 5630 5629 5628 5627 5626 5625 5623 5622 5621 5619 5618 5616 5614 5612 5611 5611 5611 5611 5611 5611 5610 5610 5609 5608 5608 5607 5606 5604 5603 5603
5639 5639 5638 5637 5636 5635 5634 5632 5631 5630 5629 5628 5627 5626 5625 5623 5622 5621 5619 5618 5616 5615 5613 5612 5610 5608 5606 5604 5605 5605 5605 5605 5605 5605 5604 5603 5602 5602 5601 5600 5599 5598 5597
5636 5635 5634 5633 5632 5631 5630 5629 5627 5627 5626 5624 5623 5621 5620 5619 5617 5616 5614 5613 5611 5609 5608 5606 5604 5602 5601 5600 5599 5600 5600 5599 5599 5598 5598 5597 5597 5596 5595 5594 5593 5592 5591
5631 5630 5630 5629 5628 5627 5626 5625 5624 5623 5622 5620 5619 5618 5616 5615 5613 5611 5609 5608 5606 5604 5603 5601 5599 5598 5597 5595 5595 5595 5594 5594 5593 5592 5592 5592 5591 5590 5589 5589 5588 5587 5585
5626 5625 5625 5625 5624 5623 5622 5621 5620 5619 5617 5616 5615 5614 5612 5611 5609 5607 5605 5603 5601 5600 5598 5596 5595 5593 5592 5591 5591 5590 5589 5588 5588 5587 5586 5586 5585 5584 5584 5583 5582 5581 5579
5621 5621 5620 5620 5619 5618 5617 5616 5615 5614 5613 5612 5611 5610 5608 5606 5604 5602 5600 5598 5597 5595 5593 5592 5590 5588 5587 5586 5585 5585 5584 5583 5583 5582 5581 5580 5579 5578 5577 5577 5576 5574 5573
5617 5617 5616 5616 5615 5614 5613 5611 5611 5610 5609 5608 5607 5606 5603 5602 5600 5597 5595 5593 5591 5590 5588 5586 5584 5583 5582 5581 5580 5580 5579 5578 5577 5577 5575 5574 5573 5571 5571 5570 5569 5568 5566
5612 5612 5611 5611 5610 5609 5608 5606 5605 5605 5604 5603 5602 5600 5598 5596 5594 5592 5590 5587 5585 5583 5581 5580 5578 5576 5576 5575 5574 5574 5574 5573 5572 5570 5569 5568 5567 5566 5565 5564 5562 5561 5560
5607 5606 5606 5606 5604 5603 5602 5601 5600 5600 5599 5597 5596 5594 5592 5591 5588 5586 5584 5581 5579 5577 5575 5573 5571 5570 5569 5568 5568 5568 5567 5567 5566 5564 5563 5562 5561 5559 5558 5557 5555 5554 5553
5602 5601 5600 5600 5599 5598 5596 5595 5594 5594 5593 5592 5590 5588 5586 5584 5582 5580 5578 5575 5573 5571 5568 5566 5564 5563 5562 5562 5562 5562 5561 5561 5560 5558 5557 5555 5554 5553 5551 5550 5548 5546 5546
5597 5596 5595 5594 5593 5592 5590 5589 5588 5587 5587 5586 5584 5583 5581 5578 5576 5574 5572 5569 5567 5565 5562 5560 5558 5557 5556 5556 5554 5553 5554 5555 5554 5552 5550 5549 5548 5546 5544 5543 5540 5539 5538
5591 5590 5589 5588 5588 5587 5585 5585 5584 5582 5581 5581 5578 5577 5575 5573 5571 5569 5566 5564 5562 5559 5557 5555 5553 5551 5550 5549 5547 5546 5545 5545 5546 5546 5544 5542 5540 5538 5537 5535 5533 5531 5530
5585 5584 5584 5583 5582 5581 5580 5579 5577 5575 5575 5573 5572 5571 5570 5568 5566 5564 5562 5559 5557 5554 5552 5550 5548 5546 5544 5543 5542 5540 5538 5538 5537 5538 5537 5535 5533 5530 5529 5527 5525 5524 5522
5580 5578 5577 5576 5575 5574 5574 5573 5572 5571 5570 5570 5568 5565 5563 5562 5560 5558 5556 5554 5552 5550 5547 5546 5544 5542 5540 5537 5535 5534 5533 5532 5529 5528 5528 5527 5525 5523 5521 5519 5517 5515 5513
5574 5572 5571 5570 5569 5568 5567 5566 5565 5565 5564 5563 5561 5559 5557 5555 5553 5552 5550 5548 5547 5545 5543 5541 5538 5536 5535 5533 5530 5528 5526 5524 5523 5520 5519 5518 5516 5516 5514 5512 5510 5508 5506
5567 5566 5565 5564 5563 5562 5561 5559 5559 5558 5557 5555 5554 5552 5550 5549 5547 5545 5544 5542 5541 5539 5537 5535 5533 5531 5529 5528 5526 5523 5521 5518 5516 5513 5511 5510 5508 5508 5507 5505 5503 5501 5498